Location: Dehesa de la Cepeda
(40.6574°N, 4.3013°W)
Time: 19:41:57
(UTC+00:00)

Vanguard 2 Rocket - Pass Details

Date: 12 August 2021
Orbit: 556 x 3324 km, 32.9° (Epoch: 19 September)

Event Time Altitude Azimuth Distance (km) Brightness Sun altitude
Rises 03:37:43 0° 235° (SW) 5,575 - -18.3°
Reaches altitude 10° 03:42:26 10° 228° (SW) 4,075 - -17.6°
Exits shadow 03:46:23 21° 214° (SW) 2,851 8.8 -17.1°
Maximum altitude 03:50:57 33° 169° (S) 1,872 8.2 -16.4°
Drops below altitude 10° 03:56:18 10° 106° (ESE) 2,525 9.7 -15.6°
Sets 03:58:33 0° 96° (E) 3,236 10.5 -15.2°
